Location: Melbourne
(37.8666°S, 145.1333°E)
Time: 10:13:15
(UTC+10:00)

HST - Visible Passes

Search period start: 18 April 2014 00:00
Search period end: 28 April 2014 00:00
Orbit: 549 x 553 km, 28.5° (Epoch: 16 April)

Date Brightness Start Highest point End Pass type
(mag) Time Alt. Az. Time Alt. Az. Time Alt. Az.
21 Apr 3.5 05:19:58 10° N 05:21:11 11° NNE 05:22:24 10° NE visible
22 Apr 3.3 05:12:27 10° NNW 05:14:34 14° NNE 05:16:42 10° NE visible
23 Apr 3.1 05:06:35 14° N 05:07:58 16° NNE 05:10:36 10° NE visible
24 Apr 2.8 05:00:40 18° N 05:01:23 18° NNE 05:04:19 10° NE visible
25 Apr 2.7 04:54:41 20° N 04:54:47 20° N 04:57:56 10° ENE visible
26 Apr 2.7 04:48:41 21° NNE 04:48:41 21° NNE 04:51:29 10° NE visible
26 Apr 2.8 06:25:56 10° WNW 06:29:07 21° N 06:32:18 10° NE visible
27 Apr 2.8 04:42:38 21° NNE 04:42:38 21° NNE 04:44:58 10° NE visible
27 Apr 2.8 06:19:31 10° NW 06:22:31 19° N 06:25:31 10° NE visible
